Location: Recife
(8.0585°S, 34.8848°W)
Time: 20:32:47
(UTC-03:00)

Explorer 11/Cluster Stage 4 - Pass Details

Date: 17 April 2026
Orbit: 463 x 1174 km, 28.8° (Epoch: 16 May)

Event Time Altitude Azimuth Distance (km) Brightness Sun altitude
Rises 20:39:29 0° 268° (W) 3,281 10.4 -50.6°
Enters shadow 20:40:27 - 264° (W) 2,954 10.1 -50.8°
Reaches altitude 10° 20:42:54 10° 250° (WSW) 2,196 - -51.4°
Maximum altitude 20:46:23 18° 207° (SSW) 1,570 - -52.3°
Drops below altitude 10° 20:49:28 10° 162° (SSE) 1,912 - -53.0°
Sets 20:52:11 0° 142° (SE) 2,703 - -53.7°
